Wind_Speed
25 27 28 29 29 30 30 30 30 30 30 30 29 27 27 28 27 26 26 26 26 25 25 26 28 29 28 28 29 30 29 28 29 31 33 34 34 34 33 32 31 31 32 32 33 33 33 32 30 27 25 23 22 20 18 16 15 14 14 13 12 12 11 11 11 11 10 10 9
25 27 29 29 30 30 29 29 30 30 30 31 30 29 28 29 29 28 28 27 27 25 24 23 24 25 25 25 26 27 26 26 27 29 31 33 33 34 34 33 32 32 33 33 34 34 34 32 30 27 25 23 21 19 17 16 15 14 13 13 12 11 11 10 10 10 10 9 8
25 28 30 31 30 30 30 29 30 31 32 32 31 30 29 29 29 29 29 29 28 26 23 22 23 23 23 23 24 25 26 26 26 28 30 32 32 34 34 34 33 33 33 34 35 35 33 31 29 27 25 22 20 18 17 16 15 14 13 13 12 11 11 10 10 10 10 9 8
26 29 31 32 32 32 32 31 32 33 33 32 30 29 28 29 29 30 30 30 28 26 24 23 22 22 23 23 24 25 26 26 27 28 30 31 32 33 34 34 34 34 34 34 35 34 32 30 28 26 24 22 20 18 16 15 14 13 12 12 11 11 10 10 10 10 10 9 9
26 29 32 33 35 36 36 35 35 35 34 32 29 28 27 28 28 29 29 29 28 27 26 24 23 23 23 24 24 25 25 27 28 29 31 32 33 33 33 34 34 34 34 35 34 33 31 29 27 25 23 21 20 18 16 15 14 13 12 11 10 10 10 10 11 11 10 10 9
26 30 33 35 37 38 38 37 36 35 33 30 28 27 27 28 28 29 29 29 30 29 28 26 26 26 26 26 27 27 28 29 30 31 32 33 33 33 32 32 32 32 33 34 34 32 31 29 27 25 23 22 21 18 16 14 13 12 11 11 10 10 10 11 11 11 10 10 9
26 30 33 36 37 38 38 36 34 33 31 29 28 28 29 29 29 30 30 30 31 30 29 29 29 29 28 29 30 30 31 32 32 32 33 33 33 32 31 30 30 31 33 33 33 31 30 28 27 25 24 22 21 18 16 14 13 12 11 11 10 10 10 11 11 11 10 10 9
26 30 33 35 36 37 36 34 31 30 29 29 29 31 31 31 31 31 31 32 31 30 31 31 30 30 29 30 32 33 33 33 33 32 32 32 32 31 30 30 30 31 32 32 31 30 29 28 27 26 24 22 20 17 15 14 13 12 11 11 10 10 11 11 11 11 10 9 9
26 30 32 34 34 34 33 31 30 29 29 30 31 32 32 32 32 32 31 31 31 31 31 30 29 29 29 31 32 33 33 33 33 32 32 32 32 31 31 30 31 31 31 30 29 29 28 27 26 25 23 20 18 16 15 14 13 12 11 11 11 11 11 11 11 11 10 9 8
26 29 31 31 31 31 30 29 28 29 30 30 31 31 31 31 31 31 31 30 30 30 30 29 28 28 29 31 32 33 33 33 32 31 31 31 32 32 31 31 31 31 30 29 28 28 27 26 24 22 20 18 17 15 14 14 13 12 11 10 10 11 11 11 11 10 9 9 8
26 28 29 29 29 29 29 28 27 28 28 29 29 29 29 29 29 30 30 29 29 29 28 28 28 29 30 31 31 31 31 31 31 30 31 31 32 32 31 31 31 30 29 27 27 26 26 24 22 20 18 16 15 15 14 14 13 12 11 10 10 11 11 11 10 10 9 8 7
25 27 27 27 27 27 27 27 26 26 27 27 27 28 28 28 28 29 29 28 28 28 27 27 27 28 29 29 29 29 29 28 28 29 30 31 31 31 31 30 30 30 28 26 25 24 23 22 20 18 16 15 14 14 14 14 13 12 11 10 10 10 10 10 9 9 8 7 7
24 24 25 25 25 26 26 26 25 25 26 26 27 27 27 28 29 29 28 28 27 27 26 25 26 27 27 27 28 28 27 26 27 28 29 30 31 31 31 30 30 29 27 25 24 22 21 19 18 16 15 14 14 14 14 13 12 11 10 9 9 9 9 8 8 8 8 8 8
22 22 23 23 24 25 25 24 24 24 25 26 26 26 27 28 28 28 27 27 26 25 25 24 24 24 24 25 26 27 27 28 29 29 29 31 31 31 31 30 28 27 26 24 22 20 19 17 16 15 14 14 14 14 13 11 10 9 8 8 8 8 8 8 8 8 8 9 10
20 21 22 23 24 24 24 23 23 23 24 25 25 26 26 27 27 27 26 25 24 23 23 23 23 23 23 24 25 27 28 29 30 30 30 31 32 32 31 29 28 26 25 23 20 18 16 16 15 14 14 14 14 12 11 9 8 8 7 7 7 7 8 8 8 9 9 10 11
20 21 22 23 23 23 23 23 22 22 23 24 24 25 25 26 27 26 25 24 22 21 22 23 24 24 24 25 26 27 29 30 31 31 31 32 32 32 31 29 27 26 24 22 19 18 16 16 16 15 15 15 14 12 10 9 8 8 7 7 7 8 8 9 9 9 9 11 12
20 21 22 23 24 24 24 24 23 22 23 23 23 24 25 26 26 26 25 24 22 22 23 24 25 26 26 26 27 27 28 30 30 31 31 32 32 31 30 28 27 25 23 22 20 19 18 17 17 17 16 15 14 13 11 10 9 9 8 8 8 8 9 9 9 10 11 13 14
21 22 22 23 24 25 24 24 23 22 22 23 23 24 25 26 26 26 25 24 23 24 25 25 26 26 27 27 27 27 28 29 29 30 30 30 31 30 29 28 26 25 23 22 21 20 19 19 18 17 16 15 14 14 13 12 11 10 10 9 9 9 9 10 11 12 13 14 14
22 22 23 24 24 24 23 23 22 22 23 23 24 25 26 26 25 25 24 24 24 26 27 26 26 27 27 27 26 27 27 28 28 29 29 29 29 29 28 27 26 25 23 22 21 20 20 19 18 17 16 15 15 14 14 13 13 12 11 10 10 9 10 11 12 14 14 15 14
22 23 24 24 23 22 22 21 22 22 23 24 25 25 25 25 24 24 24 24 25 27 28 28 27 27 27 27 26 26 26 27 28 28 28 28 28 27 27 27 26 24 23 22 21 21 20 19 18 17 16 16 15 14 14 14 13 12 10 9 8 8 10 12 13 14 15 14 14
20 21 22 22 22 21 21 21 22 23 23 24 24 25 25 24 24 24 25 26 27 28 28 28 28 28 27 27 26 26 26 26 27 28 28 28 27 27 27 26 26 25 24 23 22 21 20 19 18 17 16 15 14 13 13 12 10 8 7 6 6 8 11 13 14 14 14 14 13
15 17 18 19 21 21 21 22 23 23 23 24 24 24 24 24 24 25 26 27 28 28 27 27 28 27 27 27 26 26 26 26 27 28 28 28 27 27 27 26 26 25 24 22 21 21 20 18 17 16 14 13 11 10 9 7 6 5 4 5 7 10 12 13 14 14 13 13 13
12 14 16 18 20 21 22 23 24 24 24 24 24 24 24 24 25 26 26 27 27 27 27 26 27 27 27 27 27 28 28 28 28 28 28 28 28 27 27 26 25 24 23 22 21 20 18 17 15 12 10 8 7 6 5 5 4 4 5 7 9 11 12 13 13 13 13 13 13
13 14 16 18 20 21 22 23 24 24 24 24 24 24 24 24 26 26 26 26 26 26 26 26 26 27 28 28 29 29 29 29 29 29 28 28 28 27 26 25 23 22 21 20 19 17 16 14 11 9 7 6 5 5 5 5 5 6 7 9 10 11 12 12 12 12 12 12 12
15 16 18 19 21 22 23 23 24 24 24 24 24 25 25 26 27 27 27 26 26 26 26 27 28 28 29 29 29 30 30 30 30 30 29 28 27 26 25 23 22 20 19 18 16 15 13 11 10 8 7 7 6 6 6 6 7 8 9 10 11 11 11 11 11 11 11 11 10
17 18 19 20 22 23 23 23 24 24 24 25 25 26 26 27 27 27 27 26 26 26 27 27 28 29 29 30 30 30 30 30 30 30 29 28 26 25 23 21 20 19 17 16 14 13 11 10 9 9 8 8 7 7 7 8 9 10 10 10 10 10 10 9 9 9 9 9 8
18 19 19 20 22 22 23 24 24 24 25 26 26 26 27 27 27 27 27 27 27 27 27 28 28 29 29 29 29 29 29 29 28 28 27 26 24 23 21 20 19 17 16 14 12 11 10 9 8 8 7 7 6 6 7 8 8 9 8 8 8 9 9 8 7 7 6 6 6
19 19 19 20 21 22 23 23 24 24 25 26 26 27 27 27 27 27 28 28 27 27 27 28 28 29 28 28 28 28 28 28 27 26 25 24 23 21 20 19 18 16 14 13 11 10 9 8 6 5 5 5 5 5 6 6 6 6 6 7 8 9 9 8 6 5 5 4 4
20 20 20 20 21 21 22 23 23 24 25 26 27 27 27 27 27 27 28 28 28 28 27 27 28 28 27 27 27 27 27 26 25 24 23 22 21 20 19 18 17 16 14 13 12 11 10 8 6 4 4 4 4 4 4 4 5 6 7 8 8 7 6 5 4 4 3 3 3
21 21 20 20 20 21 21 22 22 23 24 26 26 27 27 27 26 27 27 27 27 27 27 27 27 27 27 27 27 26 25 25 24 23 22 21 20 19 18 18 17 15 14 13 12 11 10 9 6 5 4 3 2 2 4 5 6 7 7 6 5 4 3 3 2 2 2 2 2
21 21 21 21 21 20 21 21 22 23 24 25 26 26 26 26 25 25 26 26 26 26 26 27 27 27 27 26 26 25 24 23 23 22 21 21 20 19 18 17 17 15 14 12 12 11 10 8 7 5 3 2 3 4 5 6 6 5 4 3 3 3 3 2 2 2 2 2 1
22 22 21 21 21 20 21 21 22 23 24 25 25 25 25 25 25 25 26 26 26 27 27 27 28 27 27 26 25 24 24 23 22 21 20 20 19 19 18 17 16 15 13 12 11 10 9 7 5 3 2 3 4 5 5 5 3 2 2 3 3 3 3 2 2 1 1 1 0
22 22 22 21 21 20 20 21 21 22 23 23 24 24 25 25 25 26 26 26 26 27 27 27 27 27 26 25 25 24 23 22 21 20 19 19 19 19 18 17 15 14 12 11 10 8 7 5 4 2 2 3 4 4 3 2 1 2 3 4 4 3 2 2 1 0 0 1 2
23 23 22 22 21 21 20 21 21 21 22 22 23 24 25 25 25 25 25 26 26 26 27 27 27 26 26 25 24 24 23 21 20 19 19 19 19 18 17 16 14 12 11 9 8 7 6 4 3 1 1 2 2 2 1 1 2 3 4 4 3 3 2 1 1 1 2 3 3
23 23 23 22 22 21 21 21 21 21 22 22 23 23 24 25 25 25 26 26 26 26 26 26 25 25 25 24 23 23 22 21 20 19 18 18 18 17 16 14 12 10 9 8 7 7 6 5 4 2 1 1 1 1 0 2 3 4 4 3 3 2 1 1 2 3 4 4 5
22 23 23 22 22 21 21 21 22 22 22 22 23 23 24 24 25 25 26 26 26 26 26 25 25 24 24 23 22 21 21 20 19 18 17 17 17 16 15 13 11 9 8 7 7 7 7 6 4 3 1 1 1 1 1 3 4 4 3 3 2 1 1 2 3 4 5 5 5
21 22 22 22 22 21 21 22 22 23 23 23 23 24 24 24 24 25 25 25 26 26 25 25 24 24 23 22 21 20 19 18 17 16 15 15 15 14 14 13 11 9 8 7 7 7 7 6 4 2 0 1 2 2 2 3 3 3 3 2 0 1 2 3 5 5 6 6 6
20 21 22 22 22 22 22 22 22 23 23 23 24 24 24 24 24 24 24 25 25 25 24 24 23 22 21 20 19 18 16 15 15 14 14 13 13 13 13 12 11 10 8 7 7 7 7 6 4 2 1 2 2 3 2 2 2 2 1 0 1 2 4 5 6 7 7 7 6
20 21 21 22 22 22 22 22 22 23 23 24 23 23 23 23 23 23 23 24 24 24 23 22 21 20 19 18 17 16 15 13 12 12 11 11 11 12 12 12 11 10 8 7 6 6 6 6 4 2 1 2 3 3 3 2 2 2 2 2 3 4 5 6 7 8 8 8 7
20 21 22 22 22 22 22 22 22 22 23 23 23 23 23 23 23 23 22 22 22 22 21 20 19 18 17 16 16 15 14 13 11 10 9 10 10 11 12 12 11 10 8 7 6 6 6 6 5 3 1 2 3 3 3 3 3 3 3 4 5 5 6 6 7 7 8 8 7
21 21 21 21 21 21 21 21 22 22 22 23 22 22 22 22 22 22 21 21 20 20 20 19 18 17 16 16 16 15 14 13 11 10 9 9 10 11 12 12 11 9 8 6 5 5 5 6 5 3 0 1 3 4 4 4 4 4 4 5 5 5 5 6 7 7 8 8 8
Wind_Direction
220 212 207 204 203 203 204 205 207 208 208 208 207 207 206 205 204 204 204 203 204 204 206 207 208 208 208 206 204 202 200 199 197 196 197 198 200 202 202 199 194 191 192 196 200 201 200 197 195 194 194 192 191 189 188 189 192 196 200 203 203 203 203 201 200 200 200 199 198
220 212 208 205 204 203 204 205 207 208 209 211 210 208 206 205 205 204 203 202 203 204 205 206 208 208 206 203 200 198 197 196 195 196 197 198 199 201 200 197 193 192 195 199 201 200 196 193 191 191 190 188 186 185 185 187 190 193 197 199 200 200 200 200 201 203 204 202 200
219 212 208 205 203 203 204 206 207 209 210 211 211 209 206 205 204 202 202 202 203 203 201 201 204 204 202 198 196 195 194 193 193 195 196 197 198 198 198 196 195 195 197 199 199 197 193 189 188 187 185 183 181 181 183 186 189 191 193 196 197 198 199 200 204 207 208 207 206
219 212 207 205 204 204 205 207 209 210 210 210 208 207 206 204 202 202 202 203 202 199 197 195 195 195 194 192 191 190 190 191 192 194 195 196 197 198 198 197 197 197 197 198 197 193 189 186 185 184 181 178 178 179 182 185 187 189 191 194 197 198 199 203 208 211 212 212 212
218 213 209 208 207 208 208 210 210 210 210 208 205 203 202 202 200 200 201 200 196 194 193 190 185 183 184 184 184 185 187 191 193 194 194 195 198 200 200 199 197 196 196 195 193 190 186 183 181 179 177 176 176 178 181 184 186 188 190 194 197 199 203 206 210 214 216 216 216
219 215 213 211 210 210 211 211 211 210 208 205 201 199 198 198 197 195 195 194 193 192 190 187 182 178 178 181 183 186 190 194 196 195 195 196 199 201 202 200 197 195 193 192 189 186 183 180 177 175 175 176 177 178 181 185 188 189 190 194 197 201 206 210 214 217 219 219 218
223 218 215 213 212 211 211 210 210 208 205 202 198 197 196 195 194 192 191 190 190 188 187 186 183 180 180 185 188 191 194 195 196 196 196 197 199 201 201 199 196 193 191 188 184 181 180 178 175 174 175 176 177 177 180 185 190 191 191 193 198 203 208 212 217 219 219 219 219
227 221 217 214 212 211 209 208 206 204 202 199 198 197 197 195 192 191 190 189 187 186 185 185 184 185 188 192 194 194 193 193 193 194 195 197 198 198 197 196 194 190 186 183 180 179 178 177 176 175 174 175 174 175 179 185 191 193 193 195 199 204 208 212 217 219 219 219 219
226 221 218 214 212 209 207 206 204 201 199 198 198 198 197 195 191 189 187 186 185 184 185 186 189 192 194 195 193 191 190 190 190 191 193 194 194 193 192 191 189 185 181 180 179 179 178 177 176 174 173 172 172 175 180 187 192 194 195 197 199 203 208 212 216 218 219 219 219
224 219 214 211 209 207 205 203 202 199 198 197 197 196 194 192 189 187 184 182 182 182 183 187 193 196 195 192 189 187 187 187 187 188 189 190 190 189 188 186 184 181 178 179 180 180 178 176 173 171 170 171 172 176 183 190 194 194 194 196 199 203 208 213 216 218 219 221 222
223 216 211 207 205 204 202 200 198 196 195 194 193 192 189 187 185 185 183 180 180 181 185 191 194 194 191 187 185 184 184 184 184 185 186 186 186 186 184 182 181 180 178 178 179 178 176 173 170 168 168 170 174 181 188 193 194 193 191 193 199 205 210 214 217 219 221 224 227
219 213 207 204 202 200 198 195 193 191 190 189 187 186 185 184 183 182 181 179 180 184 189 193 192 189 186 183 182 181 181 180 180 181 181 182 182 182 180 179 180 179 178 177 177 175 172 169 167 166 167 170 177 185 192 194 193 189 188 192 199 206 212 215 219 222 226 231 236
212 207 202 199 198 196 193 190 187 186 186 184 183 182 182 182 182 181 179 180 181 184 188 190 189 185 180 178 178 177 176 175 175 176 177 178 178 178 177 178 178 178 177 175 174 172 169 166 165 164 165 171 180 188 193 194 190 187 188 194 202 208 214 218 223 228 233 238 243
205 200 197 195 194 191 188 185 183 182 181 180 181 181 179 179 180 180 179 180 180 180 181 180 179 177 175 173 173 172 172 172 172 172 172 173 174 175 175 175 176 175 173 171 170 168 165 163 162 162 165 173 181 187 190 191 189 190 194 200 205 211 217 222 228 234 239 243 246
198 195 193 192 189 186 183 181 179 178 177 177 177 177 176 174 175 177 177 176 175 174 172 169 168 169 170 170 168 168 169 169 168 168 168 169 171 172 172 172 171 170 168 165 163 161 160 159 159 162 167 174 178 182 183 182 185 189 193 197 204 212 220 226 233 239 243 246 246
192 191 190 188 185 182 180 178 177 176 174 173 173 172 171 169 170 172 172 170 169 166 164 162 163 165 167 167 167 166 165 165 165 165 166 166 168 169 170 169 167 165 162 159 156 155 157 159 162 165 170 173 175 176 176 175 180 185 190 196 205 216 226 233 239 245 248 249 249
189 188 187 185 182 181 179 178 178 176 172 169 169 169 167 165 165 167 168 165 162 159 159 160 161 162 163 164 164 164 163 163 164 164 165 165 166 167 167 166 163 160 157 155 154 157 160 162 164 167 170 173 173 174 175 178 184 189 196 206 217 227 236 243 249 253 254 254 253
186 186 185 183 181 180 180 180 178 173 169 168 167 167 165 163 163 163 163 162 158 157 157 158 160 161 162 162 162 163 163 163 163 163 164 164 165 166 165 163 160 157 155 155 157 160 162 163 164 166 169 171 173 176 181 187 193 199 207 215 226 237 246 254 258 259 257 255 254
185 184 183 182 181 179 179 177 173 169 167 166 165 164 163 162 161 160 159 158 157 157 157 157 158 160 162 163 163 163 163 163 162 161 162 162 164 164 162 160 158 156 157 158 160 161 160 160 160 163 166 169 175 182 189 196 202 207 213 220 230 242 252 259 260 258 255 253 252
184 183 182 181 179 176 173 171 168 166 164 164 162 161 160 160 158 156 155 155 156 157 157 157 158 159 161 162 162 160 160 161 160 159 160 161 161 161 159 157 156 157 158 159 159 158 157 157 159 163 168 173 180 188 196 202 206 210 214 220 233 247 256 258 256 253 250 249 251
182 181 179 178 175 171 168 167 165 163 160 158 157 157 157 156 155 154 154 155 156 156 156 156 157 158 159 159 158 156 155 156 156 156 157 158 157 157 156 155 155 155 156 157 156 156 157 160 164 169 174 180 186 193 199 204 207 210 215 228 244 252 253 250 248 246 247 249 253
178 175 173 170 168 166 163 162 160 158 156 154 153 152 152 151 151 151 152 153 153 154 154 154 155 155 155 155 154 154 153 151 151 153 154 154 153 152 152 152 152 152 154 156 158 160 163 167 171 176 180 184 189 195 201 207 213 220 232 242 245 245 244 243 244 247 251 256 258
167 165 162 160 159 158 156 154 153 152 151 150 149 148 147 146 146 147 148 149 150 150 150 150 150 151 151 151 152 151 149 147 147 148 149 149 148 148 148 150 151 153 156 160 163 166 168 171 173 176 178 181 186 195 205 216 225 231 235 237 237 239 241 245 250 256 260 262 262
150 150 149 148 149 148 147 146 146 146 145 144 143 143 142 141 142 143 144 144 145 145 145 145 145 146 147 148 149 148 147 145 143 143 144 145 145 146 148 151 154 157 160 163 165 167 167 167 166 165 167 172 183 194 203 212 221 228 233 236 239 243 248 254 260 264 264 264 263
134 136 137 137 138 139 139 139 139 139 139 139 139 138 137 138 139 139 138 138 139 140 141 140 141 142 144 145 146 146 145 143 142 141 141 142 145 148 151 154 157 159 160 160 160 161 161 160 159 162 170 181 193 203 214 225 233 238 241 245 249 253 259 263 266 266 264 261 260
122 124 126 129 131 132 133 133 134 134 134 134 134 133 133 135 135 134 133 133 134 136 136 136 137 139 141 142 142 142 141 141 141 141 141 143 147 151 154 156 156 155 154 153 153 153 154 158 163 172 182 192 201 213 227 238 243 246 249 253 259 265 270 272 270 265 261 257 254
114 116 120 124 125 126 127 129 130 130 130 130 130 129 130 131 131 130 130 130 130 131 132 133 135 137 138 139 139 139 138 139 140 142 144 147 150 153 154 153 151 149 146 144 144 145 149 155 168 178 187 196 209 224 235 241 246 250 255 263 271 277 280 280 275 267 258 251 247
109 112 115 117 118 120 122 124 125 126 126 127 127 127 128 128 127 127 127 127 128 129 129 131 133 135 136 137 137 138 139 140 142 145 148 151 152 151 149 146 143 139 135 134 136 139 144 150 163 178 189 200 214 226 234 241 251 261 273 281 284 284 282 279 273 264 253 246 240
107 109 110 110 111 114 117 119 121 122 123 124 124 125 125 125 125 125 126 127 128 128 129 131 133 135 135 135 137 139 141 143 146 149 150 150 147 144 140 137 132 128 128 132 136 138 140 141 148 163 181 194 207 224 243 261 276 285 288 286 283 278 273 267 260 251 241 234 229
104 105 105 105 106 108 111 114 117 119 121 121 122 122 122 123 123 124 126 127 128 129 131 133 134 134 134 136 139 141 142 145 148 149 147 143 138 134 131 127 125 125 129 135 137 136 135 135 139 151 170 190 217 262 286 293 293 291 287 280 270 257 244 235 224 213 207 204 203
102 102 102 102 102 103 106 110 113 116 117 118 119 121 121 121 122 124 126 128 129 132 134 135 134 134 136 139 141 142 143 144 144 143 140 135 131 128 125 123 124 127 133 136 135 134 133 136 143 156 179 225 277 297 300 298 295 288 273 247 220 202 193 189 186 184 183 185 185
101 101 101 100 100 101 104 107 110 112 114 116 117 119 119 120 122 125 128 130 131 133 134 135 134 135 136 139 140 140 140 138 137 135 133 131 128 126 125 125 127 131 134 135 135 135 137 141 151 171 216 273 296 303 303 298 288 257 206 182 172 167 164 164 167 171 174 187 220
102 102 101 100 100 102 104 106 108 109 111 113 115 116 118 120 123 125 128 130 132 133 133 134 134 135 136 137 137 136 134 133 132 131 130 129 128 128 129 130 132 133 135 136 137 138 141 147 160 197 259 290 301 304 302 288 228 183 171 164 160 156 150 146 142 115 21 342 330
104 104 104 103 103 104 105 106 108 109 110 111 113 116 118 120 122 123 125 128 130 132 133 134 136 136 137 137 136 134 133 132 132 131 131 132 133 134 135 135 134 135 136 138 138 137 138 143 154 190 264 296 309 315 306 195 175 170 165 160 155 151 142 120 42 3 351 343 334
109 109 109 108 108 109 110 110 110 111 110 111 112 114 117 119 121 123 125 128 130 131 132 134 136 137 137 137 137 136 135 134 134 135 136 137 139 139 139 138 137 137 137 137 134 133 134 139 148 164 204 302 337 354 144 169 170 168 163 155 150 139 100 22 357 348 342 338 334
112 113 112 112 112 112 113 113 113 112 112 111 112 113 116 118 121 124 127 130 131 132 133 135 137 138 138 138 138 137 137 136 136 137 139 141 144 145 143 141 138 136 135 135 133 133 136 143 154 171 201 337 16 56 150 172 174 172 167 163 155 115 12 359 353 347 344 341 338
114 114 113 113 112 113 113 114 114 113 112 112 114 115 117 119 121 125 129 132 133 133 134 137 138 138 139 139 138 137 137 136 137 139 142 147 150 149 147 143 139 137 136 135 135 137 141 148 162 177 198 35 56 91 140 165 175 177 177 175 166 354 353 354 353 352 350 350 349
111 112 112 112 112 112 113 114 114 113 113 115 116 118 119 121 123 127 131 134 134 134 134 136 136 137 138 137 136 135 135 137 139 142 147 152 154 153 149 146 143 141 139 136 137 140 145 152 163 171 105 61 73 91 113 140 155 163 162 121 11 1 359 357 355 354 354 355 357
110 111 112 112 112 113 114 114 115 115 117 118 119 120 122 123 124 127 131 135 135 134 133 132 133 134 135 135 135 135 137 140 144 147 151 154 157 157 155 152 150 147 142 136 137 142 148 154 160 157 98 66 71 77 84 93 99 88 56 28 15 8 4 1 356 352 349 348 348
111 113 113 114 115 116 116 117 117 119 121 122 122 122 123 124 125 128 132 133 133 132 131 130 131 133 135 136 138 140 142 145 147 149 152 155 160 163 163 161 158 153 146 137 137 144 152 157 161 161 103 60 58 57 54 52 49 41 28 18 11 5 1 355 349 344 341 338 337
114 115 116 117 118 119 120 120 121 123 124 124 124 125 126 128 129 130 131 131 131 131 131 132 134 137 139 141 142 143 144 146 147 148 151 156 163 168 171 170 167 161 153 144 141 146 154 160 167 176 184 42 39 34 29 25 25 22 14 6 1 356 350 345 341 337 335 334 334
Height
739 739 740 740 741 742 743 744 745 746 747 748 749 750 751 752 753 755 756 757 758 759 760 761 762 763 764 765 767 768 770 771 771 772 772 774 775 777 779 780 782 785 786 788 789 790 790 792 794 795 797 798 799 800 800 801 802 804 805 807 808 808 808 809 810 810 811 811 812
737 738 738 739 740 741 742 743 744 745 745 746 747 748 749 750 751 752 753 755 756 758 759 760 762 763 765 766 767 769 771 772 773 773 773 774 775 776 778 779 781 784 785 786 788 788 789 790 792 794 795 797 798 799 800 801 802 804 805 806 807 808 808 809 810 811 811 811 811
735 736 737 738 739 740 741 742 742 743 743 744 745 746 747 748 748 750 751 752 754 756 758 759 761 762 764 765 767 768 770 772 773 774 775 775 776 777 778 779 781 783 784 785 787 788 788 789 790 792 794 795 796 798 799 801 802 803 805 806 806 807 808 809 810 811 811 811 811
733 734 735 735 736 737 738 739 740 740 741 742 744 745 745 746 747 748 749 751 753 755 756 757 759 761 763 765 766 768 769 770 772 774 775 776 776 777 779 780 780 781 783 784 786 787 788 789 790 791 792 794 795 797 799 800 802 803 805 805 806 806 807 808 810 810 811 811 811
731 732 732 733 733 734 735 736 737 738 739 740 742 743 744 745 745 747 749 750 752 753 754 755 757 759 761 763 765 768 769 771 772 773 774 775 776 777 779 780 780 780 782 784 786 787 787 788 789 790 791 793 795 797 799 800 802 803 804 805 805 806 807 808 810 810 810 811 810
729 730 730 730 731 732 733 734 735 736 737 740 740 741 742 743 744 745 747 748 749 750 752 754 755 756 758 760 763 765 768 770 771 772 773 774 775 777 778 779 779 780 782 784 785 785 786 787 787 789 790 792 794 796 799 800 802 803 803 804 805 805 807 808 810 810 810 810 810
727 727 728 728 729 730 731 732 733 735 737 738 739 739 740 741 742 744 745 746 747 749 750 751 752 754 756 758 760 762 765 767 769 770 772 773 775 776 777 778 779 781 783 784 784 785 785 785 786 787 789 791 793 795 798 800 802 803 803 804 804 805 807 808 809 810 810 810 810
725 726 726 726 727 728 730 731 733 734 736 736 737 737 738 739 740 742 743 745 746 747 748 749 750 752 755 756 758 760 762 765 767 769 770 772 774 776 777 778 780 782 783 784 784 784 784 784 785 786 789 790 793 795 797 800 801 802 803 803 804 805 806 808 809 810 810 810 809
725 725 725 726 727 728 729 731 732 733 734 735 735 735 736 738 739 740 742 743 745 746 747 748 750 752 754 755 757 759 760 763 765 767 769 772 774 775 777 778 780 782 783 783 783 782 783 784 785 787 789 791 793 795 797 800 801 802 802 803 804 805 807 808 809 809 809 809 809
723 724 724 725 726 728 729 730 731 732 732 733 734 735 736 737 739 740 741 742 744 745 747 749 750 751 753 755 756 758 760 762 764 766 768 771 773 775 776 778 780 781 781 781 782 782 783 784 785 787 789 791 793 795 798 800 801 802 802 803 804 805 806 808 808 808 808 808 808
722 722 723 725 726 727 728 729 730 731 732 732 734 735 736 737 738 740 740 742 743 745 748 750 750 751 752 754 756 758 760 761 763 765 768 771 773 775 776 777 779 780 780 780 781 782 783 784 786 788 790 792 794 796 799 800 801 801 802 802 804 805 806 807 808 808 808 808 807
721 722 723 724 725 726 727 728 729 730 731 732 733 734 736 737 738 739 740 741 743 745 748 750 750 751 752 754 756 758 759 761 763 765 768 770 772 774 775 777 778 779 779 780 781 782 783 785 786 788 790 793 795 797 800 801 801 801 801 802 804 805 806 807 807 807 807 807 807
721 722 724 725 725 726 727 728 729 730 730 731 733 734 735 736 737 738 740 741 743 745 747 749 751 752 753 755 756 758 759 760 763 765 767 769 771 773 774 776 777 778 779 780 781 782 784 785 787 789 791 794 796 798 800 801 801 801 801 802 804 805 806 806 807 807 807 806 807
721 723 724 724 725 726 727 728 729 730 730 731 733 734 735 735 737 739 740 742 744 745 747 749 751 753 755 755 757 758 759 760 762 764 766 768 770 771 773 775 776 777 778 780 781 783 785 786 788 790 792 795 797 800 801 801 801 801 802 802 804 805 805 806 806 806 806 806 807
722 722 723 724 725 726 727 728 729 730 730 731 733 734 735 736 738 740 741 743 745 746 747 749 751 754 755 756 757 758 759 760 761 763 765 766 769 770 772 774 775 777 778 780 782 784 785 787 789 790 793 795 798 800 800 801 801 801 802 802 803 804 805 805 806 806 806 807 807
722 722 723 724 725 726 726 727 729 730 731 732 733 734 735 737 738 740 741 743 745 746 747 749 751 754 756 757 758 759 759 760 760 761 763 765 768 770 771 773 775 776 778 780 782 784 785 787 789 791 793 795 797 798 799 800 800 801 801 802 803 804 805 805 805 805 806 807 808
721 722 723 724 724 725 726 727 728 730 731 732 733 734 735 737 738 740 741 743 745 746 748 750 752 754 755 757 758 758 758 759 760 761 762 765 767 769 771 773 775 776 778 780 782 784 785 787 789 790 793 795 796 797 798 799 800 800 801 801 802 803 804 805 805 805 806 807 807
721 722 722 723 724 725 725 727 728 730 731 732 733 734 735 736 738 739 740 742 744 746 748 750 751 753 755 756 757 757 758 759 760 761 763 765 767 769 771 773 775 776 778 780 782 784 785 787 789 791 793 795 796 797 798 798 799 799 800 800 801 802 803 804 804 805 806 807 807
720 721 722 723 724 725 726 727 728 729 730 731 733 734 735 736 737 739 740 742 744 745 747 749 751 752 754 755 756 757 758 759 760 762 765 766 768 770 771 773 775 776 778 780 782 784 785 787 789 791 793 795 796 797 797 797 798 798 799 800 800 801 802 803 804 805 805 806 806
720 721 722 723 724 725 726 727 728 729 730 731 733 734 735 737 738 739 741 742 744 745 746 748 750 752 754 755 756 757 758 760 761 763 765 767 769 770 771 773 775 776 778 780 782 784 786 788 790 791 793 794 796 796 797 797 797 798 798 799 799 800 801 803 804 805 805 805 804
721 721 722 723 725 726 727 728 729 730 731 732 733 735 736 737 738 740 741 742 744 745 746 747 749 751 753 755 756 758 759 760 762 763 765 767 769 770 771 773 775 776 778 780 782 784 786 789 790 792 793 794 795 796 797 797 798 798 798 798 799 800 801 802 803 804 804 803 803
723 723 724 724 725 726 727 728 729 730 731 733 734 735 736 737 739 740 741 742 744 745 746 747 749 751 753 755 756 758 760 761 762 764 765 767 769 770 772 773 775 777 779 781 783 785 787 789 791 792 793 794 795 796 797 797 797 797 797 798 799 800 801 802 802 802 802 802 801
724 725 725 725 726 726 727 728 729 730 732 733 735 736 737 738 739 740 741 743 745 746 747 748 750 752 754 755 757 758 760 761 762 764 766 767 769 771 773 774 776 778 780 782 784 786 788 790 791 793 794 795 795 796 797 797 797 797 797 798 799 800 801 801 801 801 801 800 800
725 725 725 726 726 727 728 729 730 731 733 734 735 736 737 738 739 741 742 744 746 747 748 750 751 753 755 756 757 758 760 761 763 765 767 769 770 772 774 776 778 780 781 783 785 787 789 790 791 793 794 795 795 796 797 797 797 797 798 799 800 800 800 800 800 800 800 800 800
725 725 726 726 727 728 729 730 731 732 733 734 735 736 737 739 740 742 744 745 747 748 750 750 752 753 755 756 758 759 760 762 763 765 768 770 771 773 775 777 779 780 782 784 786 788 789 790 791 792 793 794 795 795 796 796 797 797 798 799 799 800 800 800 800 800 800 799 799
726 727 727 728 728 729 730 731 732 733 734 735 736 737 738 739 740 742 744 746 748 749 750 751 752 754 755 757 758 760 762 763 765 766 768 770 773 774 776 778 780 781 783 785 786 788 789 790 791 792 793 794 794 795 795 796 797 798 798 799 799 799 799 799 799 799 799 799 798
728 729 730 730 730 730 731 732 733 734 735 736 737 738 739 740 741 743 745 746 748 750 751 752 753 755 756 758 760 761 763 765 766 768 770 772 774 775 777 778 780 782 784 785 787 788 789 790 791 791 792 793 794 795 795 796 797 798 798 798 798 798 798 798 799 799 799 798 798
730 731 731 732 732 733 733 734 735 735 736 737 738 739 740 741 742 744 745 747 749 751 752 754 755 756 758 759 761 763 764 766 768 770 771 773 774 776 777 779 781 783 785 786 788 789 790 790 791 791 792 793 794 795 796 796 797 797 797 797 797 797 798 798 798 798 798 798 797
731 733 734 734 735 735 735 736 736 737 738 738 739 740 741 742 744 745 747 749 750 752 753 755 756 757 759 760 762 764 766 767 769 771 772 774 775 777 779 780 782 784 785 787 788 789 790 790 791 791 792 793 794 795 795 796 796 795 796 796 797 797 798 798 798 798 797 797 797
733 735 735 736 737 738 738 739 739 739 740 740 740 741 743 745 746 747 749 750 752 754 755 756 757 758 760 762 764 765 767 769 770 772 773 775 776 778 780 781 783 785 786 788 789 790 790 791 791 792 793 794 794 795 795 795 795 795 796 796 797 797 797 797 797 797 797 797 796
735 737 738 739 740 740 741 741 741 742 742 742 743 744 745 746 748 750 751 752 754 755 756 757 758 760 761 763 765 767 769 770 772 773 775 776 778 779 781 783 784 786 787 788 789 790 790 791 792 792 793 794 794 794 794 794 795 795 796 797 797 797 797 797 797 797 796 796 796
738 739 740 741 743 744 744 744 745 745 745 745 745 746 747 749 750 751 753 754 755 756 757 758 760 761 763 765 767 769 770 772 773 775 776 777 779 780 782 784 785 786 788 789 789 790 791 792 792 793 793 793 793 793 794 795 795 796 796 796 796 796 796 796 796 796 796 795 795
740 741 742 744 745 746 746 747 747 747 747 748 748 749 750 750 751 753 754 755 756 757 758 760 761 763 765 767 769 770 772 773 775 776 777 779 780 782 783 785 786 787 788 789 790 790 791 792 792 792 793 793 793 794 794 795 795 795 796 796 796 796 796 796 796 795 795 795 795
742 743 744 746 747 748 749 749 750 750 750 750 751 751 752 752 753 755 756 757 758 759 760 762 763 765 767 769 770 772 773 775 776 777 779 780 782 783 784 785 787 788 789 790 790 791 792 792 792 792 793 793 794 794 795 795 795 795 795 796 796 796 796 796 795 795 795 794 794
744 745 746 747 748 750 750 751 751 752 752 753 753 754 754 755 755 756 757 758 760 761 762 764 766 767 769 770 772 773 774 775 777 779 780 781 783 784 785 786 787 789 789 790 791 791 792 792 792 793 793 794 794 794 795 795 795 795 795 796 796 796 795 795 795 795 794 794 794
745 746 747 749 750 751 752 752 753 753 754 755 755 756 756 757 758 758 759 760 761 763 765 766 768 769 770 772 773 774 775 777 778 780 781 783 784 785 786 787 788 789 790 791 791 792 792 793 793 793 794 794 794 794 795 795 795 795 795 795 795 795 795 795 795 794 794 794 793
747 748 749 750 751 752 753 754 754 755 756 757 757 758 759 759 760 761 762 762 764 765 766 768 769 770 772 773 775 776 777 779 780 781 783 784 785 786 787 788 789 790 790 791 792 792 793 793 793 793 794 794 794 794 795 795 795 795 795 795 795 795 795 794 794 794 793 793 793
750 750 750 751 753 754 755 756 756 757 758 759 759 760 760 761 762 763 764 765 765 766 768 770 771 772 774 775 776 778 779 780 781 783 784 785 786 787 788 789 789 790 791 792 792 793 793 793 793 794 794 794 794 795 795 795 795 795 795 795 795 795 794 794 794 793 793 793 793
751 752 753 754 755 756 757 758 758 759 760 760 761 762 763 763 764 765 765 766 767 768 770 771 773 774 775 777 778 779 780 782 783 784 785 786 787 788 788 789 790 791 791 792 793 793 794 794 794 794 794 794 794 795 795 795 795 795 795 794 794 794 794 794 793 793 793 793 792
753 754 755 755 757 758 759 760 760 761 762 762 763 763 764 765 765 766 767 768 769 770 771 773 774 776 777 778 779 780 782 783 784 785 786 787 788 788 789 790 790 791 792 793 793 794 794 794 794 794 794 794 794 794 794 794 794 794 794 794 794 794 793 793 793 793 793 792 792
755 756 757 758 759 760 761 762 762 763 763 764 764 765 765 766 767 768 769 770 771 772 773 775 776 777 778 779 780 781 783 784 785 786 787 787 788 789 790 790 791 791 792 793 793 794 794 794 794 794 794 794 794 794 794 794 794 794 794 793 793 793 793 793 793 793 792 792 791